Skip Page Navigation
NASA JPL Caltech
NASA Logo - Jet Propulsion Laboratory + View the NASA Portal
+ Near-Earth Object (NEO) Program
Search JPL
JPL Home Earth Solar System Stars & Galaxies Technology
JPL Solar System Dynamics
BODIES ORBITS EPHEMERIDES TOOLS PHYSICAL DATA DISCOVERY FAQ SITE MAP
JPL Small-Body Database Browser
Search: [ help ]  
(2010 UT66)
Classification: Main-belt Asteroid          SPK-ID: 3550592
Ephemeris | Orbit Diagram | Orbital Elements | Physical Parameters ]

[ hide orbit diagram ]
Orbit Diagram
Note: Make sure you have Java enabled on your browser to see the applet. This applet is provided as a 3D orbit visualization tool. The applet was implemented using 2-body methods, and hence should not be used for determining accurate long-term trajectories (over several years or decades) or planetary encounter circumstances. For accurate long-term ephemerides, please instead use our Horizons system.
Orbit Viewer

Additional Notes: the orbits shown in the applet are color coded. The planets are white lines, and the asteroid/comet is a blue line. The bright white line indicates the portion of the orbit that is above the ecliptic plane, and the darker portion is below the ecliptic plane. Likewise for the asteroid/comet orbit, the light blue indicates the portion above the ecliptic plane, and the dark blue the portion below the ecliptic plane.

Orbit Viewer applet originally written and kindly provided by Osamu Ajiki (AstroArts), and further modified by Ron Baalke (JPL).


Orbital Elements at Epoch 2455500.5 (2010-Oct-31.0) TDB
Reference: MPO190738 (heliocentric ecliptic J2000)
 Element Value Uncertainty (1-sigma)   Units 
e 0.1453588 n/a  
a 3.1437546 n/a AU
q 2.6867822 n/a AU
i 17.23910 n/a deg
node 32.80411 n/a deg
peri 355.08900 n/a deg
M 7.99890 n/a deg
tp 2455455.2624422
(2010-Sep-15.76244220)
n/a JED
period 2035.9700484
5.57
n/a
n/a
d
yr
n 0.17681989 n/a deg/d
Q 3.6007270 n/a AU
  Orbit Determination Parameters
   # obs. used (total)      31  
   data-arc span      30 days  
   first obs. used      2010-10-31  
   last obs. used      2010-11-30  
   # oppositions      1  
   two-body model      T  
   fit RMS      0.55  
   data source      MPC:mp1  
   producer      MPCMEL  

Additional Information
 T_jup = 3.124 
 1-opposition object seen prior 

Ephemeris | Orbit Diagram | Orbital Elements | Physical Parameters ]

Physical Parameter Table
Parameter Symbol Value Units Sigma Reference Notes
absolute magnitude H 16.7 mag n/a MPO190738  
Ephemeris | Orbit Diagram | Orbital Elements | Physical Parameters ]
ABOUT SSD CREDITS/AWARDS PRIVACY/COPYRIGHT GLOSSARY LINKS
FirstGov 2013-May-20 18:29 UT
(server date/time)  
NASA Home Page
Site Manager:   Donald K. Yeomans
Webmaster  Alan B. Chamberlin